• In Belarus
  • List of Countries
  • For 7 days
  • Water Temperature
  • Weather Map
  • Weather Widgets
  • user-avatar
    Login

    Hourly Weather Kapan

    Today, 20 September, Friday

    Time Temperature Precipitation Wind Pressure Humidity
    00:00 +21°C° 0 mm 1 mps 686 mmHg 49%
    01:00 +20°C° 0 mm 1 mps 685 mmHg 50%
    02:00 +20°C° 0 mm 1 mps 685 mmHg 52%
    03:00 +19°C° 0 mm 1 mps 685 mmHg 56%
    04:00 +17°C° 0 mm 0 mps 685 mmHg 59%
    05:00 +16°C° 0 mm 0 mps 685 mmHg 62%
    06:00 +16°C° 0 mm 0 mps 685 mmHg 65%
    07:00 +20°C° 0 mm 1 mps 685 mmHg 61%
    08:00 +22°C° 0 mm 1 mps 685 mmHg 58%
    09:00 +24°C° 0 mm 2 mps 686 mmHg 55%
    10:00 +25°C° 0 mm 2 mps 686 mmHg 52%
    11:00 +26°C° 0 mm 2 mps 685 mmHg 49%
    12:00 +27°C° 0 mm 3 mps 685 mmHg 46%
    13:00 +27°C° 0 mm 3 mps 684 mmHg 45%
    14:00 +27°C° 0 mm 3 mps 684 mmHg 43%
    15:00 +28°C° 0 mm 2 mps 683 mmHg 42%
    16:00 +26°C° 0 mm 2 mps 682 mmHg 49%
    17:00 +24°C° 0 mm 1 mps 682 mmHg 56%
    18:00 +22°C° 0 mm 1 mps 681 mmHg 63%
    19:00 +22°C° 0 mm 1 mps 681 mmHg 61%
    20:00 +22°C° 0 mm 1 mps 681 mmHg 60%
    21:00 +21°C° 0 mm 1 mps 681 mmHg 59%
    22:00 +21°C° 0 mm 1 mps 681 mmHg 55%
    23:00 +20°C° 0 mm 2 mps 681 mmHg 51%

    Tomorrow, 21 September, Saturday

    Time Temperature Precipitation Wind Pressure Humidity
    00:00 +21°C° 0 mm 2 mps 681 mmHg 47%
    01:00 +21°C° 0 mm 2 mps 681 mmHg 43%
    02:00 +21°C° 0 mm 2 mps 680 mmHg 40%
    03:00 +21°C° 0 mm 2 mps 680 mmHg 36%
    04:00 +21°C° 0 mm 2 mps 680 mmHg 36%
    05:00 +21°C° 0 mm 2 mps 680 mmHg 35%
    06:00 +21°C° 0 mm 2 mps 680 mmHg 35%
    07:00 +24°C° 0 mm 3 mps 680 mmHg 35%
    08:00 +25°C° 0 mm 3 mps 680 mmHg 35%
    09:00 +27°C° 0 mm 4 mps 680 mmHg 35%
    10:00 +28°C° 0 mm 4 mps 680 mmHg 33%
    11:00 +29°C° 0 mm 4 mps 680 mmHg 32%
    12:00 +32°C° 0 mm 5 mps 679 mmHg 30%
    13:00 +32°C° 0 mm 5 mps 679 mmHg 30%
    14:00 +32°C° 0 mm 5 mps 678 mmHg 30%
    15:00 +32°C° 0 mm 6 mps 678 mmHg 30%
    16:00 +28°C° 0 mm 4 mps 678 mmHg 38%
    17:00 +25°C° 0 mm 3 mps 678 mmHg 46%
    18:00 +23°C° 0 mm 2 mps 678 mmHg 53%
    19:00 +20°C° 0 mm 3 mps 678 mmHg 62%
    20:00 +19°C° 0 mm 3 mps 679 mmHg 70%
    21:00 +17°C° 0 mm 4 mps 680 mmHg 78%
    22:00 +17°C° 0 mm 3 mps 680 mmHg 80%
    23:00 +16°C° 0 mm 3 mps 680 mmHg 82%

    Day after tomorrow, 22 September, Sunday

    Time Temperature Precipitation Wind Pressure Humidity
    00:00 +15°C° 0 mm 2 mps 681 mmHg 84%
    01:00 +15°C° 0 mm 2 mps 681 mmHg 86%
    02:00 +15°C° 0 mm 2 mps 682 mmHg 88%
    03:00 +14°C° 0 mm 2 mps 682 mmHg 89%
    04:00 +14°C° 0.2 mm 2 mps 683 mmHg 90%
    05:00 +12°C° 0.2 mm 3 mps 684 mmHg 90%
    06:00 +12°C° 0.2 mm 3 mps 684 mmHg 90%
    07:00 +12°C° 0 mm 3 mps 685 mmHg 83%
    08:00 +12°C° 0 mm 3 mps 686 mmHg 76%
    09:00 +12°C° 0 mm 3 mps 686 mmHg 70%
    10:00 +13°C° 0 mm 3 mps 686 mmHg 63%
    11:00 +14°C° 0 mm 3 mps 687 mmHg 56%
    12:00 +17°C° 0 mm 3 mps 687 mmHg 50%
    13:00 +17°C° 0 mm 3 mps 687 mmHg 47%
    14:00 +18°C° 0 mm 3 mps 686 mmHg 45%
    15:00 +18°C° 0 mm 3 mps 686 mmHg 42%
    16:00 +17°C° 0 mm 3 mps 686 mmHg 47%
    17:00 +15°C° 0 mm 2 mps 685 mmHg 51%
    18:00 +14°C° 0 mm 2 mps 685 mmHg 55%
    19:00 +13°C° 0 mm 1 mps 685 mmHg 57%
    20:00 +13°C° 0 mm 1 mps 686 mmHg 59%
    21:00 +12°C° 0 mm 1 mps 686 mmHg 60%
    22:00 +12°C° 0 mm 1 mps 686 mmHg 61%
    23:00 +12°C° 0 mm 1 mps 686 mmHg 61%

    23 September, Monday

    Time Temperature Precipitation Wind Pressure Humidity
    00:00 +12°C° 0 mm 1 mps 686 mmHg 62%
    01:00 +11°C° 0 mm 1 mps 686 mmHg 63%
    02:00 +11°C° 0 mm 1 mps 685 mmHg 63%
    03:00 +11°C° 0 mm 1 mps 685 mmHg 64%
    04:00 +11°C° 0 mm 1 mps 685 mmHg 64%
    05:00 +11°C° 0 mm 1 mps 685 mmHg 64%
    06:00 +11°C° 0 mm 1 mps 685 mmHg 64%
    07:00 +13°C° 0 mm 1 mps 685 mmHg 57%
    08:00 +15°C° 0 mm 1 mps 686 mmHg 50%
    09:00 +17°C° 0 mm 2 mps 686 mmHg 44%
    10:00 +19°C° 0 mm 2 mps 686 mmHg 41%
    11:00 +20°C° 0 mm 2 mps 686 mmHg 38%
    12:00 +21°C° 0 mm 3 mps 685 mmHg 35%
    13:00 +22°C° 0 mm 3 mps 685 mmHg 35%
    14:00 +22°C° 0 mm 3 mps 684 mmHg 36%
    15:00 +22°C° 0 mm 3 mps 684 mmHg 36%
    16:00 +20°C° 0 mm 2 mps 683 mmHg 43%
    17:00 +18°C° 0 mm 2 mps 683 mmHg 50%
    18:00 +16°C° 0 mm 1 mps 683 mmHg 58%
    19:00 +16°C° 0 mm 1 mps 683 mmHg 60%
    20:00 +15°C° 0 mm 1 mps 683 mmHg 62%
    21:00 +15°C° 0 mm 1 mps 684 mmHg 64%
    22:00 +14°C° 0 mm 1 mps 684 mmHg 66%
    23:00 +14°C° 0 mm 1 mps 684 mmHg 68%

    24 September, Tuesday

    Time Temperature Precipitation Wind Pressure Humidity
    00:00 +13°C° 0 mm 1 mps 684 mmHg 71%
    01:00 +13°C° 0 mm 1 mps 684 mmHg 72%
    02:00 +13°C° 0 mm 1 mps 684 mmHg 73%
    03:00 +13°C° 0 mm 1 mps 684 mmHg 74%
    04:00 +13°C° 0 mm 1 mps 684 mmHg 74%
    05:00 +13°C° 0 mm 1 mps 684 mmHg 74%
    06:00 +12°C° 0 mm 1 mps 684 mmHg 74%
    07:00 +15°C° 0 mm 1 mps 685 mmHg 67%
    08:00 +18°C° 0 mm 1 mps 686 mmHg 59%
    09:00 +19°C° 0 mm 2 mps 686 mmHg 52%
    10:00 +20°C° 0 mm 2 mps 686 mmHg 49%
    11:00 +21°C° 0 mm 3 mps 686 mmHg 46%
    12:00 +24°C° 0 mm 3 mps 686 mmHg 43%
    13:00 +24°C° 0 mm 3 mps 686 mmHg 45%
    14:00 +22°C° 0 mm 3 mps 685 mmHg 47%
    15:00 +22°C° 0 mm 3 mps 684 mmHg 49%
    16:00 +21°C° 0 mm 2 mps 684 mmHg 59%
    17:00 +19°C° 0 mm 2 mps 684 mmHg 69%
    18:00 +18°C° 0 mm 1 mps 683 mmHg 78%
    19:00 +18°C° 0 mm 1 mps 683 mmHg 77%
    20:00 +18°C° 0 mm 1 mps 684 mmHg 75%
    21:00 +15°C° 0 mm 0 mps 684 mmHg 74%
    22:00 +15°C° 0 mm 0 mps 684 mmHg 73%
    23:00 +15°C° 0 mm 0 mps 684 mmHg 71%

    25 September, Wednesday

    Time Temperature Precipitation Wind Pressure Humidity
    00:00 +15°C° 0 mm 0 mps 683 mmHg 70%
    01:00 +14°C° 0 mm 0 mps 683 mmHg 69%
    02:00 +14°C° 0 mm 0 mps 683 mmHg 68%
    03:00 +14°C° 0 mm 0 mps 683 mmHg 68%
    04:00 +15°C° 0 mm 1 mps 683 mmHg 67%
    05:00 +15°C° 0 mm 1 mps 683 mmHg 66%
    06:00 +14°C° 0 mm 1 mps 683 mmHg 66%
    07:00 +18°C° 0 mm 1 mps 683 mmHg 59%
    08:00 +20°C° 0 mm 1 mps 684 mmHg 51%
    09:00 +23°C° 0 mm 1 mps 684 mmHg 44%
    10:00 +24°C° 0 mm 2 mps 684 mmHg 40%
    11:00 +26°C° 0 mm 2 mps 684 mmHg 36%
    12:00 +27°C° 0 mm 3 mps 684 mmHg 32%
    13:00 +28°C° 0 mm 2 mps 684 mmHg 31%
    14:00 +28°C° 0 mm 2 mps 684 mmHg 30%
    15:00 +28°C° 0 mm 2 mps 683 mmHg 29%
    16:00 +26°C° 0 mm 2 mps 683 mmHg 35%
    17:00 +24°C° 0 mm 1 mps 682 mmHg 42%
    18:00 +22°C° 0 mm 1 mps 682 mmHg 49%
    19:00 +21°C° 0 mm 1 mps 682 mmHg 47%
    20:00 +21°C° 0 mm 1 mps 682 mmHg 46%
    21:00 +21°C° 0 mm 1 mps 682 mmHg 44%
    22:00 +21°C° 0 mm 1 mps 682 mmHg 42%
    23:00 +20°C° 0 mm 2 mps 682 mmHg 39%
    Show more